Waarnemingen

Advertentie
Mijn weer
Carcassonne, Frankrijk (7635): temperatuur & dauwpunt: 17.07.2017 08:00:00 - 23.07.2017 08:00:00 (CEST)Carcassonne, Frankrijk (7635): temperatuur 5cm: 17.07.2017 08:00:00 - 23.07.2017 08:00:00 (CEST)Carcassonne, Frankrijk (7635): temperatuur -20cm & temperatuur -100cm: 17.07.2017 08:00:00 - 23.07.2017 08:00:00 (CEST)Carcassonne, Frankrijk (7635): windsnelheid & windstoten: 17.07.2017 08:00:00 - 23.07.2017 08:00:00 (CEST)Carcassonne, Frankrijk (7635): windrichting: 17.07.2017 08:00:00 - 23.07.2017 08:00:00 (CEST)Carcassonne, Frankrijk (7635): luchtdruk: 17.07.2017 08:00:00 - 23.07.2017 08:00:00 (CEST)Carcassonne, Frankrijk (7635): zicht: 17.07.2017 08:00:00 - 23.07.2017 08:00:00 (CEST)Carcassonne, Frankrijk (7635): Zonneschijnduur: 17.07.2017 08:00:00 - 23.07.2017 08:00:00 (CEST)Carcassonne, Frankrijk (7635): neerslag: 17.07.2017 08:00:00 - 23.07.2017 08:00:00 (CEST)
Datum & Tijd tt [°C] td [°C] tt 5cm [°C] tt -20cm [°C] tt -100cm [°C] ff [km/u] ff [kn] fx [km/u] fx [kn] dd ppp [hPa] vv [km] sd [min] rr [mm]
23.07.2017 08:00:00 19,7 14,1 19,8 25,4 23,5 22 12 33 18 WNW 1020,6 54 0 0,0
23.07.2017 07:00:00 19,9 14,5 19,8 25,6 23,5 18 10 31 17 WNW 1020,3 60 0 0,0
23.07.2017 06:00:00 20,2 14,8 20,0 25,8 23,5 18 10 34 18 WNW 1019,7 55 0 0,0
23.07.2017 05:00:00 20,7 15,5 20,5 26,0 23,5 18 10 31 17 W 1019,3 43 0 0,0
23.07.2017 04:00:00 21,1 16,1 20,8 26,2 23,5 17 9 32 17 W 1019,3 34 0 0,0
23.07.2017 03:00:00 21,5 16,0 21,2 26,4 23,5 16 9 27 15 W 1019,5 37 0 0,0
23.07.2017 02:00:00 21,9 16,0 21,6 26,7 23,5 16 9 29 15 W 1019,5 45 0 0,0
23.07.2017 01:00:00 22,4 16,0 21,9 26,9 23,5 19 10 34 18 WNW 1019,0 49 0 0,0
23.07.2017 00:00:00 22,7 16,7 22,3 27,1 23,5 19 10 29 15 WNW 1018,2 56 0 0,0
22.07.2017 23:00:00 23,2 16,7 22,8 27,3 23,5 13 7 23 13 W 1017,9 60 0 0,0
22.07.2017 22:00:00 23,2 16,7 23,0 27,4 23,5 10 5 24 13 W 1017,1 18 0 0,0
22.07.2017 21:00:00 23,4 16,7 23,3 27,5 23,5 13 7 30 16 W 1016,3 60 0 0,0
22.07.2017 20:00:00 24,2 16,7 24,4 27,5 23,5 19 10 36 19 W 1015,6 51 25 0,0
22.07.2017 19:00:00 25,8 16,9 26,4 27,4 23,5 24 13 40 22 W 1014,6 37 51 0,0
22.07.2017 18:00:00 26,3 17,4 27,4 27,1 23,5 24 13 39 21 W 1014,0 43 15 0,0
22.07.2017 17:00:00 26,6 17,1 28,5 26,6 23,6 20 11 33 18 WNW 1013,8 43 12 0,0
22.07.2017 16:00:00 26,9 16,8 28,8 26,0 23,5 16 9 25 14 W 1013,7 33 36 0,0
22.07.2017 15:00:00 27,3 17,8 28,0 25,5 23,5 12 7 22 12 WNW 1013,7 35 35 0,0
22.07.2017 14:00:00 25,9 17,5 28,3 25,1 23,5 13 7 23 12 WNW 1014,2 60 15 0,0
22.07.2017 13:00:00 25,5 16,6 27,9 24,7 23,6 12 6 18 10 WNW 1014,2 20 10 0,0
22.07.2017 12:00:00 24,1 16,9 25,9 24,3 23,6 10 5 20 11 WNW 1014,4 36 19 0,0
22.07.2017 11:00:00 23,2 15,8 24,6 24,1 23,6 13 7 22 12 W 1014,4 44 58 0,0
22.07.2017 10:00:00 21,5 14,9 22,5 24,1 23,6 12 6 23 12 W 1014,8 54 47 0,0
22.07.2017 09:00:00 20,0 14,6 20,2 24,2 23,6 13 7 22 12 W 1014,8 41 55 0,0
22.07.2017 08:00:00 19,3 14,8 17,2 24,4 23,6 9 5 17 9 W 1014,4 51 39 0,0
22.07.2017 07:00:00 18,1 14,2 17,3 24,6 23,6 6 4 17 9 WZW 1014,4 55 0 0,0
22.07.2017 06:00:00 18,9 14,4 18,1 24,8 23,6 6 3 20 11 W 1014,0 59 0 0,0
22.07.2017 05:00:00 19,2 14,9 18,8 25,0 23,6 9 5 25 14 W 1013,8 57 0 0,0
22.07.2017 04:00:00 19,5 15,4 18,9 25,2 23,6 12 6 24 13 W 1014,1 56 0 0,0
22.07.2017 03:00:00 20,2 16,0 19,8 25,4 23,6 16 9 35 19 W 1014,3 54 0 0,0
22.07.2017 02:00:00 20,7 16,3 20,5 25,6 23,6 12 7 28 15 W 1013,7 55 0 0,0
22.07.2017 01:00:00 21,3 16,7 20,6 25,8 23,6 18 10 29 15 W 1014,5 57 0 0,0
22.07.2017 00:00:00 21,5 16,7 20,8 25,9 23,7 12 7 24 13 W 1013,6 59 0 0,0
21.07.2017 23:00:00 21,9 16,6 21,1 26,1 23,7 13 7 21 12 W 1013,4 60 0 0,0
21.07.2017 22:00:00 22,2 17,1 21,6 26,2 23,7 11 6 34 19 WNW 1012,6 57 0 0,0
21.07.2017 21:00:00 23,7 17,4 23,3 26,2 23,7 21 11 36 20 WNW 1011,6 59 7 0,0
21.07.2017 20:00:00 26,7 16,6 27,4 26,0 23,7 18 10 29 16 WNW 1010,4 19 60 0,0
21.07.2017 19:00:00 28,7 16,9 29,0 25,7 23,7 10 5 17 9 WNW 1009,8 60 46 0,0
21.07.2017 18:00:00 29,0 16,5 32,9 25,3 23,7 6 3 21 11 NNW 1009,9 46 60 0,0
21.07.2017 17:00:00 28,1 16,1 31,5 24,9 23,7 13 7 27 15 O 1010,2 40 60 0,0
21.07.2017 16:00:00 26,3 16,8 27,5 24,6 23,7 16 9 25 14 O 1010,4 46 55 0,0
21.07.2017 15:00:00 23,4 16,9 22,7 24,6 23,7 5 3 32 18 N 1010,6 49 0 0,0
21.07.2017 14:00:00 21,8 16,5 21,8 24,5 23,7 16 9 26 14 O 1010,7 47 0 0,0
21.07.2017 13:00:00 21,4 16,1 21,2 24,4 23,7 6 3 23 13 Z 1013,5 20 0 0,0
21.07.2017 12:00:00 21,6 15,4 22,5 24,3 23,7 11 6 28 15 ZW 1013,5 58 0 0,0
21.07.2017 11:00:00 20,7 16,1 21,6 24,2 23,7 17 9 39 21 W 1013,4 39 10 0,0
21.07.2017 10:00:00 21,3 16,0 21,7 24,2 23,8 21 12 35 19 WNW 1013,4 28 23 0,0
21.07.2017 09:00:00 20,4 16,6 19,8 24,3 23,7 13 7 29 15 W 1012,9 25 60 0,0
21.07.2017 08:00:00 18,7 16,1 17,5 24,6 23,7 9 5 19 10 W 1013,0 37 11 0,0
21.07.2017 07:00:00 17,9 15,7 16,9 24,8 23,7 - - 15 8 - 1013,0 38 0 0,0
21.07.2017 06:00:00 18,4 15,8 17,8 25,0 23,8 9 5 27 14 WZW 1013,2 40 0 0,0
21.07.2017 05:00:00 18,7 15,9 18,2 25,2 23,8 13 7 28 15 W 1012,9 41 0 0,0
21.07.2017 04:00:00 19,1 16,1 18,8 25,4 23,8 16 8 28 15 W 1013,7 42 0 0,0
21.07.2017 03:00:00 19,4 16,4 19,1 25,6 23,7 13 7 26 14 W 1014,2 43 0 0,0
21.07.2017 02:00:00 19,6 16,6 18,7 25,9 23,8 14 7 27 15 W 1014,7 41 0 0,0
21.07.2017 01:00:00 19,6 16,8 19,3 26,1 23,7 16 9 25 14 W 1015,0 38 0 0,0
21.07.2017 00:00:00 20,1 17,1 19,8 26,4 23,7 16 9 32 17 W 1015,4 37 0 0,0
20.07.2017 23:00:00 20,2 17,0 20,0 26,6 23,8 18 10 31 17 W 1015,4 36 0 0,0
20.07.2017 22:00:00 20,4 16,8 20,1 26,8 23,8 18 10 29 16 W 1015,3 39 0 0,0
20.07.2017 21:00:00 20,9 17,1 20,9 27,0 23,8 15 8 31 17 W 1015,3 42 0 0,0
20.07.2017 20:00:00 21,5 17,5 21,8 27,1 23,8 21 11 34 18 W 1015,0 38 4 0,0
20.07.2017 19:00:00 22,3 17,7 22,9 27,1 23,8 22 12 34 18 W 1014,3 58 4 0,0
20.07.2017 18:00:00 22,2 17,6 23,8 27,0 23,8 24 13 39 21 W 1015,0 43 13 0,0
20.07.2017 17:00:00 22,4 17,3 23,8 26,9 23,8 24 13 41 22 W 1015,0 45 14 0,0
20.07.2017 16:00:00 21,9 18,3 23,1 26,8 23,8 22 12 39 21 W 1015,3 38 2 0,0
20.07.2017 15:00:00 22,4 18,2 24,5 26,5 23,8 23 13 36 19 W 1015,4 38 16 0,0
20.07.2017 14:00:00 22,4 18,2 23,7 26,1 23,7 22 12 33 18 W 1015,5 41 0 0,0
20.07.2017 13:00:00 23,0 18,1 25,3 25,8 23,8 21 11 36 20 WNW 1015,5 54 46 0,0
20.07.2017 12:00:00 23,9 18,8 24,8 25,5 23,8 20 11 30 16 WNW 1015,5 60 40 0,0
20.07.2017 11:00:00 23,5 17,7 26,4 25,3 23,7 12 6 21 11 WNW 1015,3 60 60 0,0
20.07.2017 10:00:00 21,8 17,2 21,7 25,3 23,8 5 3 10 5 NW 1015,5 56 50 0,0
20.07.2017 09:00:00 19,6 17,9 19,9 25,4 23,8 0 0 4 2 N 1015,7 60 0 0,0
20.07.2017 08:00:00 18,9 17,7 18,8 25,6 23,8 3 1 4 2 O 1015,9 33 0 0,0
20.07.2017 07:00:00 18,6 17,8 18,6 25,8 23,8 2 1 6 3 WNW 1016,1 13 0 0,0
20.07.2017 06:00:00 18,8 18,0 18,7 26,0 23,8 2 1 8 5 N 1016,0 49 0 0,0
20.07.2017 05:00:00 18,8 18,0 18,3 26,3 23,8 5 3 10 5 O 1016,0 19 0 0,0
20.07.2017 04:00:00 18,9 17,9 18,5 26,5 23,8 - - 8 4 - 1016,0 60 0 0,0
20.07.2017 03:00:00 18,7 17,7 18,2 26,7 23,8 9 5 18 10 ZW 1015,8 59 0 1,2
20.07.2017 02:00:00 18,9 17,6 18,3 26,9 23,8 14 7 - - NW 1016,0 3,2 0 -
20.07.2017 01:00:00 22,9 19,3 22,7 27,1 23,8 8 4 24 13 O 1014,0 26 0 0,0
20.07.2017 00:00:00 22,9 19,3 22,6 27,2 23,7 15 8 35 19 O 1013,2 26 0 0,0
19.07.2017 23:00:00 22,9 19,5 22,6 27,4 23,8 19 11 38 20 O 1012,4 24 0 0,0
19.07.2017 22:00:00 23,0 19,6 22,7 27,6 23,8 22 12 46 25 O 1012,0 24 0 0,0
19.07.2017 21:00:00 23,4 19,8 22,2 27,7 23,7 30 16 45 24 O 1011,9 30 12 0,0
19.07.2017 20:00:00 23,2 20,2 21,6 27,8 23,8 22 12 45 24 O 1012,2 24 0 0,2
19.07.2017 19:00:00 24,1 19,4 24,4 27,7 23,7 29 15 60 33 O 1011,8 30 0 0,0
19.07.2017 18:00:00 25,1 19,9 26,0 27,6 23,7 36 19 62 33 O 1012,1 30 14 0,0
19.07.2017 17:00:00 25,1 20,4 25,4 27,3 23,7 32 17 62 33 O 1012,3 20 2 0,0
19.07.2017 16:00:00 26,7 20,8 28,7 27,0 23,7 42 23 70 38 O 1012,2 21 33 0,0
19.07.2017 15:00:00 26,9 20,0 28,7 26,7 23,7 40 21 60 33 O 1012,3 20 40 0,0
19.07.2017 14:00:00 27,3 20,9 27,0 26,6 23,7 37 20 56 30 O 1012,4 27 20 0,0
19.07.2017 13:00:00 25,5 20,5 25,5 26,5 23,7 31 17 51 28 O 1013,3 31 19 0,0
19.07.2017 12:00:00 24,6 20,7 23,0 26,5 23,7 27 15 48 26 O 1014,1 20 0 0,0
19.07.2017 11:00:00 23,8 19,9 23,3 26,5 23,7 31 17 50 27 O 1013,9 20 0 0,0
19.07.2017 10:00:00 22,7 19,7 22,2 26,6 23,7 27 14 51 28 O 1014,0 17 0 0,0
19.07.2017 09:00:00 21,8 19,0 21,7 26,8 23,7 29 15 46 25 O 1013,9 21 0 0,0
19.07.2017 08:00:00 21,2 19,1 20,9 26,9 23,7 25 14 44 24 O 1013,2 20 0 0,0
19.07.2017 07:00:00 21,0 18,9 20,8 27,1 23,7 13 7 31 17 OZO 1013,8 21 0 0,0
19.07.2017 06:00:00 21,5 19,2 21,3 27,3 23,7 11 6 23 13 OZO 1014,7 15 0 0,0
19.07.2017 05:00:00 21,5 19,4 21,4 27,4 23,7 11 6 26 14 ZO 1014,2 21 0 0,0
19.07.2017 04:00:00 21,7 19,6 21,4 27,6 23,7 8 4 26 14 ZO 1014,9 19 0 0,0
19.07.2017 03:00:00 21,7 19,8 21,3 27,8 23,6 18 10 26 14 O 1014,6 12 0 0,0
19.07.2017 02:00:00 21,7 20,2 - - - 16 9 29 16 O 1015,0 6 - -
19.07.2017 01:00:00 22,5 19,7 22,5 28,2 23,6 21 12 49 26 O 1014,7 21 0 0,0
19.07.2017 00:00:00 22,8 20,1 22,8 28,4 23,6 31 17 49 26 O 1013,9 22 0 0,0
18.07.2017 23:00:00 23,0 20,0 22,9 28,6 23,6 30 16 56 31 O 1014,0 26 0 0,0
18.07.2017 22:00:00 23,0 20,0 23,0 28,8 23,6 35 19 59 32 O 1013,4 24 0 0,0
18.07.2017 21:00:00 23,3 19,9 23,5 28,9 23,7 37 20 61 33 O 1013,6 27 0 0,0
18.07.2017 20:00:00 23,9 20,0 24,2 28,9 23,6 39 21 63 34 O 1013,3 36 0 0,0
18.07.2017 19:00:00 24,8 19,8 25,7 28,8 23,6 38 21 64 35 O 1013,3 32 2 0,0
18.07.2017 18:00:00 25,1 19,7 26,8 28,6 23,6 35 19 65 35 O 1014,0 17 27 0,0
18.07.2017 17:00:00 25,9 19,8 27,9 28,3 23,6 41 22 69 37 O 1014,2 15 41 0,0
18.07.2017 16:00:00 26,4 20,0 28,3 27,9 23,6 41 22 66 35 O 1014,2 16 44 0,0
18.07.2017 15:00:00 26,4 20,3 27,8 27,5 23,6 44 24 66 36 O 1014,5 18 43 0,0
18.07.2017 14:00:00 27,5 20,6 29,5 27,0 23,6 44 24 67 36 O 1014,6 20 56 0,0
18.07.2017 13:00:00 27,0 20,3 28,8 26,7 23,6 41 22 63 34 O 1015,1 23 58 0,0
18.07.2017 12:00:00 26,2 19,3 26,5 26,6 23,6 36 19 60 32 O 1015,2 20 42 0,0
18.07.2017 11:00:00 24,8 18,3 24,7 26,6 23,6 35 19 60 33 O 1015,2 38 21 0,0
18.07.2017 10:00:00 23,3 18,2 23,0 26,7 23,6 30 16 47 25 O 1015,6 43 0 0,0
18.07.2017 09:00:00 22,5 18,1 22,3 26,8 23,6 27 15 48 26 O 1015,5 25 0 0,0
18.07.2017 08:00:00 22,1 17,7 21,9 27,0 23,6 25 14 51 27 O 1015,4 42 0 0,0
18.07.2017 07:00:00 21,8 17,4 21,6 27,1 23,5 21 12 49 27 O 1015,3 44 0 0,0
18.07.2017 06:00:00 21,8 17,4 21,7 27,3 23,5 27 15 44 24 O 1015,2 53 0 0,0
18.07.2017 05:00:00 21,8 17,6 21,7 27,5 23,5 21 11 39 21 O 1015,2 50 0 0,0
18.07.2017 04:00:00 21,7 17,5 21,6 27,8 23,5 24 13 41 22 O 1015,5 48 0 0,0
18.07.2017 03:00:00 21,7 17,1 21,2 28,0 23,5 19 11 40 22 O 1015,7 56 0 0,0
18.07.2017 02:00:00 21,5 17,3 21,1 28,3 23,5 23 12 41 22 O 1015,8 53 0 0,0
18.07.2017 01:00:00 21,9 17,1 21,6 28,6 23,5 25 14 47 26 O 1016,0 55 0 0,0
18.07.2017 00:00:00 21,9 17,7 21,7 28,8 23,5 27 15 48 26 O 1016,2 52 0 0,0
17.07.2017 23:00:00 22,2 17,6 22,2 29,1 23,5 37 20 58 31 O 1015,1 58 0 0,0
17.07.2017 22:00:00 22,7 17,4 22,5 29,3 23,5 28 15 41 22 O 1016,6 59 0 0,0
17.07.2017 21:00:00 23,6 15,9 23,5 29,5 23,5 22 12 44 24 O 1017,2 60 0 0,0
17.07.2017 20:00:00 24,7 14,2 24,9 29,7 23,5 29 16 55 30 O 1016,2 43 25 0,0
17.07.2017 19:00:00 25,5 12,3 26,1 29,7 23,4 36 19 59 32 O 1016,0 46 0 0,0
17.07.2017 18:00:00 26,0 12,4 26,2 29,7 23,5 32 18 54 29 O 1016,1 47 0 0,0
17.07.2017 17:00:00 27,2 13,9 27,6 29,3 23,5 29 16 56 31 O 1017,2 37 9 0,0
17.07.2017 16:00:00 29,8 14,7 31,1 28,8 23,4 36 19 58 31 O 1016,4 15 53 0,0
17.07.2017 15:00:00 29,8 14,4 32,9 28,3 23,4 38 20 61 33 O 1016,7 15 60 0,0
17.07.2017 14:00:00 29,0 13,6 32,1 27,8 23,4 40 21 63 34 O 1017,2 16 60 0,0
17.07.2017 13:00:00 28,1 17,0 30,7 27,4 23,4 40 22 56 30 O 1017,6 17 60 0,0
17.07.2017 12:00:00 27,4 16,4 30,0 27,2 23,4 37 20 59 32 O 1017,9 20 60 0,0
17.07.2017 11:00:00 26,4 15,7 27,5 27,1 23,4 31 17 49 27 O 1018,5 20 60 0,0
17.07.2017 10:00:00 24,2 15,4 22,2 27,1 23,3 33 18 48 26 O 1018,9 32 54 0,0
17.07.2017 09:00:00 21,5 17,3 21,0 27,4 23,3 18 10 42 23 OZO 1019,4 46 32 0,0
17.07.2017 08:00:00 20,6 16,4 19,8 27,6 23,3 27 15 45 24 O 1019,3 23 41 0,0

tt = temperatuur
td = dauwpunt
tt 5cm = temperatuur 5cm
tt -20cm = temperatuur -20cm
tt -100cm = temperatuur -100cm
ff = windsnelheid
fx = windstoten
dd = windrichting
ppp = luchtdruk
vv = zicht
sd = Zonneschijnduur
rr = neerslag

Weerstations in de omgeving